This is the latest recevied weather packets stored in our database for station/object KD8DLP-13. If no packets are shown the sender has not sent any weather packets the latest 10 day(s).
| Time | Temp. | Humidity | Pressure | Rain* | Wind** | Luminosity | Snow |
|---|---|---|---|---|---|---|---|
| 1777659471 | 7.22° C | 63% | 1016.7 hPa | 0 mm | - | 90 W/m² | - |
| 1777659169 | 7.22° C | 62% | 1016.7 hPa | 0 mm | - | 83 W/m² | - |
| 1777658866 | 7.78° C | 62% | 1016.5 hPa | 0 mm | - | 105 W/m² | - |
| 1777658562 | 7.78° C | 63% | 1016.7 hPa | 0 mm | - | 163 W/m² | - |
| 1777658259 | 7.78° C | 59% | 1016.7 hPa | 0 mm | - | 258 W/m² | - |
| 1777657956 | 7.78° C | 60% | 1016.8 hPa | 0 mm | - | 152 W/m² | - |
| 1777657652 | 7.78° C | 59% | 1016.7 hPa | 0 mm | - | 107 W/m² | - |
| 1777657350 | 7.78° C | 59% | 1016.7 hPa | 0 mm | - | 126 W/m² | - |
| 1777657048 | 7.78° C | 59% | 1016.6 hPa | 0 mm | - | 131 W/m² | - |
| 1777656745 | 8.33° C | 58% | 1016.7 hPa | 0 mm | - | 116 W/m² | - |
| 1777656440 | 8.33° C | 60% | 1016.7 hPa | 0 mm | - | 132 W/m² | - |
| 1777656135 | 8.33° C | 59% | 1016.7 hPa | 0 mm | - | 171 W/m² | - |
| 1777655832 | 8.33° C | 59% | 1016.5 hPa | 0 mm | - | 229 W/m² | - |
| 1777655529 | 8.33° C | 60% | 1016.7 hPa | 0 mm | - | 199 W/m² | - |
| 1777655226 | 8.33° C | 59% | 1016.7 hPa | 0 mm | - | 167 W/m² | - |
| 1777654923 | 8.33° C | 59% | 1016.5 hPa | 0 mm | - | 175 W/m² | - |
| 1777654620 | 8.89° C | 57% | 1016.5 hPa | 0 mm | - | 211 W/m² | - |
| 1777654317 | 8.89° C | 58% | 1016.7 hPa | 0 mm | - | 311 W/m² | - |
| 1777654015 | 8.33° C | 59% | 1016.6 hPa | 0 mm | - | 352 W/m² | - |
| 1777653712 | 8.33° C | 58% | 1016.8 hPa | 0 mm | - | 344 W/m² | - |
| 1777653408 | 8.89° C | 57% | 1016.8 hPa | 0 mm | - | 394 W/m² | - |
| 1777653105 | 8.89° C | 59% | 1016.9 hPa | 0 mm | - | 297 W/m² | - |
| 1777652801 | 8.89° C | 56% | 1016.7 hPa | 0 mm | - | 293 W/m² | - |
| 1777652498 | 9.44° C | 56% | 1016.6 hPa | 0 mm | - | 319 W/m² | - |
| 1777652195 | 9.44° C | 55% | 1016.7 hPa | 0 mm | - | 389 W/m² | - |
* Rain latest hour (hover to see other rain measurements)
** Current wind speed in m/s (hover to see current wind gust speed)